DW6794 Weather Reports


Display with metric or nautical units.
time (UTC)temp
F
wind
direction
speed
MPH
gust
MPH
rain 1hr
in
rain 24hr
in
rain mn
in
humidity
%
barometer
mb
20150801032402 65 19 0.0 0.0 0.00 0.00 0.00 73 1013.1
20150801031402 65 19 0.0 0.0 0.00 0.00 0.00 73 1013.1
20150801030402 65 19 0.0 0.0 0.00 0.00 0.00 73 1012.8
20150801025402 66 19 0.0 0.0 0.00 0.00 0.00 72 1012.7
20150801024403 66 19 0.0 0.0 0.00 0.00 0.00 71 1012.6
20150801023403 67 19 0.0 0.0 0.00 0.00 0.00 71 1012.5
20150801022402 67 19 0.0 0.0 0.00 0.00 0.00 71 1012.5
20150801021402 68 19 0.0 0.0 0.00 0.00 0.00 69 1012.3
20150801020402 68 19 0.0 0.0 0.00 0.00 0.00 69 1012.1
20150801015403 69 19 0.0 0.0 0.00 0.00 0.00 68 1012.0
20150801014402 70 19 0.0 0.0 0.00 0.00 0.00 66 1012.0
20150801013402 70 19 0.0 0.0 0.00 0.00 0.00 65 1011.8
20150801012402 71 19 0.0 0.0 0.00 0.00 0.00 64 1011.7
20150801011402 72 19 0.0 0.0 0.00 0.00 0.00 63 1011.6
20150801010403 73 19 0.0 0.0 0.00 0.00 0.00 62 1011.5
20150801005403 74 19 0.0 0.0 0.00 0.00 0.00 60 1011.4
20150801004402 75 19 0.0 0.0 0.00 0.00 0.00 56 1011.4
20150801003402 76 19 0.0 0.0 0.00 0.00 0.00 56 1011.4
20150801002403 77 19 0.0 0.0 0.00 0.00 0.00 54 1011.3
20150801001402 78 19 0.0 0.0 0.00 0.00 0.00 52 1011.3
20150801000403 80 19 0.0 0.0 0.00 0.00 0.00 51 1011.3
20150731235403 81 19 0.0 0.0 0.00 0.00 0.00 49 1011.3
20150731234403 82 19 0.0 0.0 0.00 0.00 0.00 47 1011.2
20150731233403 83 19 0.0 0.0 0.00 0.00 0.00 46 1010.8
20150731232402 84 19 0.0 0.0 0.00 0.00 0.00 46 1010.8
20150731231402 84 19 0.0 0.0 0.00 0.00 0.00 45 1010.8
20150731230403 84 19 0.0 0.0 0.00 0.00 0.00 45 1010.7
20150731225403 84 19 0.0 0.0 0.00 0.00 0.00 44 1010.8
20150731224403 85 19 0.0 2.0 0.00 0.00 0.00 44 1010.8
20150731223403 85 335 0.0 0.0 0.00 0.00 0.00 43 1010.8
20150731222403 85 335 0.0 1.0 0.00 0.00 0.00 43 1010.8
20150731221403 85 313 0.0 1.0 0.00 0.00 0.00 44 1010.7
20150731220403 85 270 0.0 0.0 0.00 0.00 0.00 45 1010.7
20150731215403 85 355 0.0 3.0 0.00 0.00 0.00 45 1010.7
20150731214403 85 5 0.0 1.0 0.00 0.00 0.00 45 1010.7
20150731213403 85 9 0.0 0.0 0.00 0.00 0.00 45 1010.8
20150731212403 85 9 1.0 6.0 0.00 0.00 0.00 44 1010.9
20150731211403 85 304 0.0 6.0 0.00 0.00 0.00 46 1010.9
20150731210403 85 245 5.0 7.0 0.00 0.00 0.00 46 1010.9
20150731205404 85 343 0.0 0.0 0.00 0.00 0.00 47 1011.2
20150731204403 85 343 0.0 5.0 0.00 0.00 0.00 47 1011.3
20150731203403 85 16 0.0 6.0 0.00 0.00 0.00 47 1011.3
20150731202403 84 2 0.0 1.0 0.00 0.00 0.00 49 1011.3
20150731201404 84 19 2.0 5.0 0.00 0.00 0.00 48 1011.4
20150731200403 83 42 0.0 3.0 0.00 0.00 0.00 48 1011.6
20150731195403 83 45 1.0 5.0 0.00 0.00 0.00 50 1011.7
20150731194404 82 46 0.0 0.0 0.00 0.00 0.00 49 1011.8
20150731193404 83 46 3.0 10.0 0.00 0.00 0.00 49 1011.9
20150731192404 82 53 5.0 10.0 0.00 0.00 0.00 50 1011.9
20150731191404 82 47 4.0 5.0 0.00 0.00 0.00 50 1012.2
20150731190403 83 49 0.0 7.0 0.00 0.00 0.00 50 1012.3
20150731185404 83 57 0.0 6.0 0.00 0.00 0.00 52 1012.3
20150731184404 82 57 4.0 6.0 0.00 0.00 0.00 52 1012.6
20150731183404 82 59 2.0 6.0 0.00 0.00 0.00 51 1012.8
20150731182404 81 40 1.0 7.0 0.00 0.00 0.00 52 1012.8
20150731181404 81 41 7.0 9.0 0.00 0.00 0.00 53 1012.8
20150731180404 81 78 3.0 7.0 0.00 0.00 0.00 52 1012.9
20150731175404 81 71 3.0 6.0 0.00 0.00 0.00 53 1013.0
20150731174403 81 53 2.0 7.0 0.00 0.00 0.00 54 1013.2
20150731173404 80 5 0.0 6.0 0.00 0.00 0.00 55 1013.1
20150731172404 80 5 4.0 7.0 0.00 0.00 0.00 56 1013.3
20150731171404 80 82 3.0 12.0 0.00 0.00 0.00 56 1013.4
20150731170404 80 17 3.0 8.0 0.00 0.00 0.00 57 1013.4
20150731165404 80 96 3.0 9.0 0.00 0.00 0.00 56 1013.4
20150731164404 80 82 3.0 10.0 0.00 0.00 0.00 56 1013.4
20150731163404 79 60 5.0 8.0 0.00 0.00 0.00 57 1013.5
20150731162404 79 65 5.0 12.0 0.00 0.00 0.00 58 1013.5
20150731161404 79 39 1.0 8.0 0.00 0.00 0.00 61 1013.4
20150731160404 78 47 5.0 8.0 0.00 0.00 0.00 61 1013.5
20150731155404 78 78 6.0 13.0 0.00 0.00 0.00 62 1013.5
20150731154404 78 80 5.0 10.0 0.00 0.00 0.00 62 1013.6
20150731153404 78 77 6.0 12.0 0.00 0.00 0.00 64 1013.6
20150731152404 78 69 5.0 8.0 0.00 0.00 0.00 65 1013.6
20150731151404 77 55 6.0 9.0 0.00 0.00 0.00 66 1013.4
20150731150405 77 17 6.0 13.0 0.00 0.00 0.00 67 1013.6
20150731145404 77 82 2.0 7.0 0.00 0.00 0.00 69 1013.7
20150731144404 76 45 1.0 8.0 0.00 0.00 0.00 71 1013.9
20150731143404 76 108 1.0 8.0 0.00 0.00 0.00 71 1013.9
20150731142404 76 34 5.0 12.0 0.00 0.00 0.00 72 1013.8
20150731141404 76 65 0.0 1.0 0.00 0.00 0.00 72 1013.8
20150731140405 76 65 0.0 0.0 0.00 0.00 0.00 74 1013.8
20150731135405 75 62 0.0 0.0 0.00 0.00 0.00 75 1013.8
20150731134404 75 62 0.0 0.0 0.00 0.00 0.00 77 1013.8
20150731133405 74 69 0.0 0.0 0.00 0.00 0.00 78 1013.7
20150731132405 74 21 0.0 0.0 0.00 0.00 0.00 80 1013.8
20150731131405 73 21 0.0 0.0 0.00 0.00 0.00 81 1013.8
20150731130405 73 21 0.0 0.0 0.00 0.00 0.00 82 1013.9
20150731125404 72 21 0.0 0.0 0.00 0.00 0.00 83 1013.8
20150731124404 71 21 0.0 0.0 0.00 0.00 0.00 84 1013.8
20150731123405 69 21 0.0 0.0 0.00 0.00 0.00 85 1013.7
20150731122404 68 21 0.0 0.0 0.00 0.00 0.00 85 1013.7
20150731121405 67 21 0.0 0.0 0.00 0.00 0.00 85 1013.8
20150731120405 66 21 0.0 0.0 0.00 0.00 0.00 86 1013.6
20150731115405 65 21 0.0 0.0 0.00 0.00 0.00 86 1013.7
20150731114404 65 21 0.0 0.0 0.00 0.00 0.00 86 1013.8
20150731113404 64 21 0.0 0.0 0.00 0.00 0.00 86 1013.6
20150731112405 63 21 0.0 0.0 0.00 0.00 0.00 85 1013.6
20150731111404 63 21 0.0 0.0 0.00 0.00 0.00 85 1013.4
20150731110405 62 21 0.0 0.0 0.00 0.00 0.00 85 1013.4
20150731105405 62 21 0.0 0.0 0.00 0.00 0.00 84 1013.4
20150731104405 62 21 0.0 0.0 0.00 0.00 0.00 84 1013.4
20150731103405 62 21 0.0 0.0 0.00 0.00 0.00 84 1013.4
20150731102405 63 21 0.0 0.0 0.00 0.00 0.00 84 1013.2
20150731101405 63 21 0.0 0.0 0.00 0.00 0.00 83 1012.9
20150731100405 63 21 0.0 0.0 0.00 0.00 0.00 83 1012.8
20150731095405 63 21 0.0 0.0 0.00 0.00 0.00 83 1012.8
20150731094405 63 21 0.0 0.0 0.00 0.00 0.00 83 1012.7
20150731093405 64 21 0.0 0.0 0.00 0.00 0.00 83 1012.7
20150731092405 64 21 0.0 0.0 0.00 0.00 0.00 82 1012.7
20150731091406 64 21 0.0 0.0 0.00 0.00 0.00 82 1012.7
20150731090406 64 21 0.0 0.0 0.00 0.00 0.00 82 1012.7
20150731085406 65 21 0.0 0.0 0.00 0.00 0.00 82 1012.6
20150731084405 65 21 0.0 0.0 0.00 0.00 0.00 82 1012.5
20150731083406 65 21 0.0 0.0 0.00 0.00 0.00 81 1012.5
20150731082405 66 21 0.0 0.0 0.00 0.00 0.00 82 1012.4
20150731081405 66 21 0.0 0.0 0.00 0.00 0.00 81 1012.3
20150731080406 67 21 0.0 0.0 0.00 0.00 0.00 81 1012.5
20150731075405 67 21 0.0 0.0 0.00 0.00 0.00 80 1012.5
20150731074406 68 21 0.0 0.0 0.00 0.00 0.00 79 1012.4
20150731073405 69 21 0.0 0.0 0.00 0.00 0.00 79 1012.2
20150731072406 69 21 0.0 0.0 0.00 0.00 0.00 79 1012.3
20150731071406 69 21 0.0 0.0 0.00 0.00 0.00 80 1012.4
20150731070406 70 21 0.0 0.0 0.00 0.00 0.00 80 1012.4
20150731065406 70 21 0.0 0.0 0.00 0.00 0.00 80 1012.6
20150731064406 70 21 0.0 0.0 0.00 0.00 0.00 79 1012.7
20150731063406 70 21 0.0 0.0 0.00 0.00 0.00 78 1012.8
20150731062406 70 21 0.0 0.0 0.00 0.00 0.00 77 1012.7
20150731061406 70 21 0.0 0.0 0.00 0.00 0.00 77 1012.7
20150731060406 70 21 0.0 0.0 0.00 0.00 0.00 77 1012.7
20150731055406 71 21 0.0 0.0 0.00 0.00 0.00 77 1012.6
20150731054405 71 21 0.0 0.0 0.00 0.00 0.00 77 1012.6
20150731053406 72 21 0.0 0.0 0.00 0.00 0.00 76 1012.6
20150731052406 72 21 0.0 0.0 0.00 0.00 0.00 76 1012.7
20150731051406 73 21 0.0 0.0 0.00 0.00 0.00 75 1012.7
20150731050406 74 21 0.0 0.0 0.00 0.00 0.00 74 1012.8
20150731045406 74 21 0.0 0.0 0.00 0.00 0.00 73 1012.9
20150731044406 74 21 0.0 0.0 0.00 0.00 0.00 73 1012.9
20150731043406 74 21 0.0 0.0 0.00 0.00 0.00 73 1013.0
20150731042406 74 21 0.0 0.0 0.00 0.00 0.00 73 1012.9
20150731041406 75 21 0.0 0.0 0.00 0.00 0.00 72 1012.8
20150731040406 76 21 0.0 0.0 0.00 0.00 0.00 72 1012.7
20150731035406 76 21 0.0 0.0 0.00 0.00 0.00 72 1012.7
20150731034406 76 21 0.0 0.0 0.00 0.00 0.00 71 1012.6
20150731033406 76 9 0.0 0.0 0.00 0.00 0.00 71 1012.6